Location: Grevenbroich
(51.0902°N, 6.5859°E)
Time: 00:48:10
(UTC+01:00)

ISS - Pass Details

Date: 16 February 2026
Orbit: 416 x 427 km, 51.6° (Epoch: 7 March)

Event Time Altitude Azimuth Distance (km) Brightness Sun altitude
Exits shadow 06:21:44 13° 219° (SW) 1,343 -1.5 -13.6°
Maximum altitude 06:24:29 38° 152° (SSE) 649 -2.5 -13.2°
Drops below altitude 10° 06:27:32 11° 83° (E) 1,456 0.4 -12.7°
Sets 06:29:48 0° 75° (ENE) 2,359 1.6 -12.4°
